User: anonymous   Login
Location: Terra Rouge Observatory
(46.0000°N, 62.7500°W)
Time: 08:07:20
(UTC-03:00)
Language:

Landsat 5 - Orbit

View from above orbital plane
View from above orbital plane
View from above satellite
View from above satellite

Ground track
Ground track

The orbit data is extracted from the following two-line orbital elements,

1 14780U 84021A   18174.88318927 +.00000252 +00000-0 +29280-4 0  9996
2 14780 098.0748 299.8688 0091118 026.7289 333.8583 14.91741392355740
Epoch (UTC): 23 June 2018 21:11:47
Eccentricity: 0.0091118
inclination: 98.0748°
perigee height: 529 km
apogee height: 656 km
right ascension of ascending node: 299.8688°
argument of perigee: 26.7289°
revolutions per day: 14.91741392
mean anomaly at epoch: 333.8583°
orbit number at epoch: 35574

The dashed part of the orbit path shows where the satellite is in the earth's shadow,  

DLR